| time (UTC) | temp C | wind direction | speed KPH | gust KPH | rain 1hr cm | rain 24hr cm | rain mn cm | humidity % | barometer mb |
| 20260503010008 | 6 | 304 | 0.0 | 4.8 | 0.00 | 0.00 | 0.00 | 45 | 1013.5 |
| 20260503005505 | 6 | 71 | 1.6 | 4.8 | 0.00 | 0.00 | 0.00 | 46 | 1013.4 |
| 20260503005004 | 6 | 352 | 0.0 | 3.2 | 0.00 | 0.00 | 0.00 | 44 | 1013.5 |
| 20260503004547 | 6 | 352 | 0.0 | 1.6 | 0.00 | 0.00 | 0.00 | 48 | 1013.5 |
| 20260503004006 | 7 | 294 | 0.0 | 0.0 | 0.00 | 0.00 | 0.00 | 44 | 1013.5 |
| 20260503003506 | 7 | 294 | 0.0 | 0.0 | 0.00 | 0.00 | 0.00 | 41 | 1013.5 |
| 20260503003020 | 7 | 294 | 0.0 | 0.0 | 0.00 | 0.00 | 0.00 | 40 | 1013.6 |
| 20260503002507 | 7 | 294 | 0.0 | 0.0 | 0.00 | 0.00 | 0.00 | 39 | 1013.6 |
| 20260503002008 | 8 | 294 | 0.0 | 0.0 | 0.00 | 0.00 | 0.00 | 38 | 1013.7 |
| 20260503001526 | 8 | 294 | 0.0 | 0.0 | 0.00 | 0.00 | 0.00 | 38 | 1013.7 |
| 20260503001009 | 8 | 294 | 0.0 | 0.0 | 0.00 | 0.00 | 0.00 | 40 | 1013.8 |
| 20260503000513 | 8 | 294 | 0.0 | 0.0 | 0.00 | 0.00 | 0.00 | 38 | 1013.9 |
| 20260503000029 | 8 | 294 | 0.0 | 4.8 | 0.00 | 0.00 | 0.00 | 37 | 1014.0 |
| 20260502235502 | 8 | 238 | 0.0 | 4.8 | 0.00 | 0.00 | 0.00 | 39 | 1014.0 |
| 20260502235002 | 8 | 263 | 0.0 | 4.8 | 0.00 | 0.00 | 0.00 | 38 | 1014.0 |
| 20260502234511 | 8 | 225 | 1.6 | 4.8 | 0.00 | 0.00 | 0.00 | 37 | 1014.0 |
| 20260502234006 | 8 | 225 | 1.6 | 6.4 | 0.00 | 0.00 | 0.00 | 37 | 1014.1 |
| 20260502233503 | 8 | 256 | 1.6 | 6.4 | 0.00 | 0.00 | 0.00 | 36 | 1014.1 |
| 20260502233016 | 8 | 227 | 1.6 | 11.3 | 0.00 | 0.00 | 0.00 | 36 | 1014.2 |
| 20260502232507 | 8 | 247 | 0.0 | 11.3 | 0.00 | 0.00 | 0.00 | 37 | 1014.2 |
| 20260502232007 | 8 | 272 | 1.6 | 6.4 | 0.00 | 0.00 | 0.00 | 36 | 1014.2 |
| 20260502231524 | 9 | 30 | 0.0 | 11.3 | 0.00 | 0.00 | 0.00 | 35 | 1014.2 |
| 20260502231009 | 9 | 30 | 0.0 | 12.9 | 0.00 | 0.00 | 0.00 | 35 | 1014.2 |
| 20260502230509 | 9 | 282 | 1.6 | 12.9 | 0.00 | 0.00 | 0.00 | 34 | 1014.2 |
| 20260502230026 | 9 | 59 | 1.6 | 12.9 | 0.00 | 0.00 | 0.00 | 34 | 1014.2 |
| 20260502225508 | 9 | 65 | 1.6 | 14.5 | 0.00 | 0.00 | 0.00 | 35 | 1014.3 |
| 20260502225008 | 9 | 62 | 6.4 | 14.5 | 0.00 | 0.00 | 0.00 | 34 | 1014.3 |
| 20260502224527 | 9 | 352 | 6.4 | 14.5 | 0.00 | 0.00 | 0.00 | 34 | 1014.4 |
| 20260502224011 | 9 | 105 | 4.8 | 14.5 | 0.00 | 0.00 | 0.00 | 33 | 1014.4 |
| 20260502223506 | 9 | 90 | 6.4 | 14.5 | 0.00 | 0.00 | 0.00 | 33 | 1014.5 |
| 20260502223016 | 10 | 285 | 3.2 | 14.5 | 0.00 | 0.00 | 0.00 | 34 | 1014.5 |
| 20260502222504 | 10 | 178 | 0.0 | 9.7 | 0.00 | 0.00 | 0.00 | 34 | 1014.6 |
| 20260502222007 | 10 | 120 | 0.0 | 6.4 | 0.00 | 0.00 | 0.00 | 33 | 1014.7 |
| 20260502221519 | 10 | 236 | 0.0 | 17.7 | 0.00 | 0.00 | 0.00 | 33 | 1014.7 |
| 20260502221009 | 10 | 273 | 1.6 | 17.7 | 0.00 | 0.00 | 0.00 | 33 | 1014.9 |
| 20260502220508 | 9 | 352 | 3.2 | 12.9 | 0.00 | 0.00 | 0.00 | 34 | 1014.8 |
| 20260502220026 | 9 | 44 | 4.8 | 14.5 | 0.00 | 0.00 | 0.00 | 33 | 1014.9 |
| 20260502215509 | 9 | 45 | 6.4 | 14.5 | 0.00 | 0.00 | 0.00 | 34 | 1014.9 |
| 20260502215008 | 9 | 338 | 3.2 | 14.5 | 0.00 | 0.00 | 0.00 | 33 | 1014.9 |
| 20260502214526 | 9 | 92 | 3.2 | 17.7 | 0.00 | 0.00 | 0.00 | 32 | 1015.0 |
| 20260502214010 | 10 | 89 | 4.8 | 17.7 | 0.00 | 0.00 | 0.00 | 31 | 1015.0 |
| 20260502213511 | 10 | 44 | 3.2 | 14.5 | 0.00 | 0.00 | 0.00 | 35 | 1015.0 |
| 20260502213028 | 9 | 278 | 3.2 | 17.7 | 0.00 | 0.00 | 0.00 | 32 | 1015.1 |
| 20260502212503 | 10 | 5 | 4.8 | 19.3 | 0.00 | 0.00 | 0.00 | 33 | 1015.2 |
| 20260502212006 | 9 | 266 | 6.4 | 19.3 | 0.00 | 0.00 | 0.00 | 32 | 1015.2 |
| 20260502211531 | 9 | 322 | 4.8 | 14.5 | 0.00 | 0.00 | 0.00 | 32 | 1015.2 |
| 20260502211008 | 9 | 270 | 3.2 | 19.3 | 0.00 | 0.00 | 0.00 | 32 | 1015.2 |
| 20260502210509 | 10 | 63 | 9.7 | 19.3 | 0.00 | 0.00 | 0.00 | 30 | 1015.3 |
| 20260502210025 | 9 | 279 | 1.6 | 19.3 | 0.00 | 0.00 | 0.00 | 33 | 1015.3 |
| 20260502205507 | 9 | 44 | 4.8 | 19.3 | 0.00 | 0.00 | 0.00 | 32 | 1015.4 |
| 20260502205008 | 9 | 111 | 4.8 | 17.7 | 0.00 | 0.00 | 0.00 | 31 | 1015.4 |
| 20260502204525 | 9 | 352 | 8.0 | 19.3 | 0.00 | 0.00 | 0.00 | 30 | 1015.5 |
| 20260502204010 | 9 | 5 | 4.8 | 20.9 | 0.00 | 0.00 | 0.00 | 30 | 1015.6 |
| 20260502203510 | 9 | 51 | 6.4 | 20.9 | 0.00 | 0.00 | 0.00 | 31 | 1015.7 |
| 20260502203026 | 8 | 5 | 11.3 | 22.5 | 0.00 | 0.00 | 0.00 | 30 | 1015.7 |
| 20260502202510 | 8 | 26 | 3.2 | 22.5 | 0.00 | 0.00 | 0.00 | 30 | 1015.7 |
| 20260502202011 | 9 | 24 | 8.0 | 16.1 | 0.00 | 0.00 | 0.00 | 30 | 1015.9 |
| 20260502201513 | 9 | 84 | 4.8 | 19.3 | 0.00 | 0.00 | 0.00 | 31 | 1015.9 |
| 20260502201007 | 8 | 290 | 8.0 | 19.3 | 0.00 | 0.00 | 0.00 | 32 | 1015.8 |
| 20260502200506 | 8 | 11 | 4.8 | 20.9 | 0.00 | 0.00 | 0.00 | 31 | 1016.0 |
| 20260502200024 | 8 | 23 | 8.0 | 20.9 | 0.00 | 0.00 | 0.00 | 31 | 1016.1 |
| 20260502195508 | 8 | 333 | 8.0 | 22.5 | 0.00 | 0.00 | 0.00 | 30 | 1016.1 |
| 20260502195008 | 8 | 36 | 9.7 | 22.5 | 0.00 | 0.00 | 0.00 | 32 | 1016.1 |
| 20260502194523 | 9 | 328 | 4.8 | 25.7 | 0.00 | 0.00 | 0.00 | 30 | 1016.2 |
| 20260502194007 | 9 | 40 | 6.4 | 25.7 | 0.00 | 0.00 | 0.00 | 31 | 1016.2 |
| 20260502193517 | 8 | 20 | 8.0 | 19.3 | 0.00 | 0.00 | 0.00 | 31 | 1016.3 |
| 20260502193026 | 8 | 314 | 3.2 | 19.3 | 0.00 | 0.00 | 0.00 | 28 | 1016.3 |
| 20260502192512 | 10 | 30 | 4.8 | 16.1 | 0.00 | 0.00 | 0.00 | 32 | 1016.4 |
| 20260502192009 | 8 | 32 | 8.0 | 19.3 | 0.00 | 0.00 | 0.00 | 31 | 1016.3 |
| 20260502191528 | 8 | 34 | 11.3 | 19.3 | 0.00 | 0.00 | 0.00 | 29 | 1016.3 |
| 20260502191010 | 9 | 317 | 6.4 | 17.7 | 0.00 | 0.00 | 0.00 | 32 | 1016.4 |
| 20260502190511 | 8 | 15 | 6.4 | 25.7 | 0.00 | 0.00 | 0.00 | 32 | 1016.4 |
| 20260502190015 | 8 | 5 | 8.0 | 25.7 | 0.00 | 0.00 | 0.00 | 31 | 1016.5 |
| 20260502185506 | 8 | 333 | 6.4 | 25.7 | 0.00 | 0.00 | 0.00 | 32 | 1016.5 |
| 20260502185010 | 8 | 320 | 6.4 | 20.9 | 0.00 | 0.00 | 0.00 | 31 | 1016.5 |
| 20260502184540 | 8 | 360 | 8.0 | 22.5 | 0.00 | 0.00 | 0.00 | 29 | 1016.5 |
| 20260502184007 | 8 | 103 | 9.7 | 22.5 | 0.00 | 0.00 | 0.00 | 30 | 1016.5 |
| 20260502183508 | 8 | 305 | 6.4 | 24.1 | 0.00 | 0.00 | 0.00 | 30 | 1016.6 |
| 20260502183038 | 8 | 330 | 8.0 | 24.1 | 0.00 | 0.00 | 0.00 | 30 | 1016.6 |
| 20260502182507 | 8 | 345 | 9.7 | 19.3 | 0.00 | 0.00 | 0.00 | 30 | 1016.6 |
| 20260502182010 | 8 | 69 | 4.8 | 19.3 | 0.00 | 0.00 | 0.00 | 29 | 1016.6 |
| 20260502181536 | 8 | 336 | 3.2 | 24.1 | 0.00 | 0.00 | 0.00 | 32 | 1016.7 |
| 20260502181008 | 8 | 9 | 12.9 | 24.1 | 0.00 | 0.00 | 0.00 | 29 | 1016.7 |
| 20260502180508 | 8 | 153 | 12.9 | 20.9 | 0.00 | 0.00 | 0.00 | 30 | 1016.8 |
| 20260502170504 | 7 | 345 | 4.8 | 20.9 | 0.00 | 0.00 | 0.00 | 30 | 1017.0 |
| 20260502164007 | 7 | 123 | 8.0 | 22.5 | 0.00 | 0.00 | 0.00 | 32 | 1017.3 |
| 20260502163508 | 7 | 20 | 4.8 | 14.5 | 0.00 | 0.00 | 0.00 | 36 | 1017.3 |
| 20260502163025 | 7 | 320 | 4.8 | 14.5 | 0.00 | 0.00 | 0.00 | 35 | 1017.4 |
| 20260502162508 | 7 | 250 | 3.2 | 14.5 | 0.00 | 0.00 | 0.00 | 34 | 1017.4 |
| 20260502162009 | 7 | 45 | 4.8 | 20.9 | 0.00 | 0.00 | 0.00 | 39 | 1017.5 |
| 20260502161507 | 7 | 321 | 9.7 | 20.9 | 0.00 | 0.00 | 0.00 | 34 | 1017.5 |
| 20260502161003 | 7 | 248 | 3.2 | 20.9 | 0.00 | 0.00 | 0.00 | 37 | 1017.6 |
| 20260502160504 | 7 | 269 | 3.2 | 20.9 | 0.00 | 0.00 | 0.00 | 39 | 1017.6 |
| 20260502152009 | 6 | 250 | 1.6 | 12.9 | 0.00 | 0.00 | 0.00 | 39 | 1017.8 |
| 20260502151526 | 6 | 113 | 1.6 | 14.5 | 0.00 | 0.00 | 0.00 | 40 | 1017.8 |
| 20260502151008 | 5 | 145 | 8.0 | 14.5 | 0.00 | 0.00 | 0.00 | 41 | 1017.8 |
| 20260502150502 | 5 | 322 | 4.8 | 16.1 | 0.00 | 0.00 | 0.00 | 41 | 1017.9 |
| 20260502130505 | 2 | 40 | 3.2 | 6.4 | 0.00 | 0.00 | 0.00 | 60 | 1018.3 |
| 20260502123502 | 1 | 56 | 0.0 | 4.8 | 0.00 | 0.00 | 0.00 | 77 | 1018.4 |
| 20260502123014 | 0 | 350 | 0.0 | 4.8 | 0.00 | 0.00 | 0.00 | 81 | 1018.5 |
| 20260502122506 | 0 | 338 | 0.0 | 0.0 | 0.00 | 0.00 | 0.00 | 88 | 1018.5 |
| 20260502122010 | 0 | 338 | 0.0 | 0.0 | 0.00 | 0.00 | 0.00 | 90 | 1018.6 |
| 20260502121516 | 0 | 338 | 0.0 | 0.0 | 0.00 | 0.00 | 0.00 | 91 | 1018.6 |
| 20260502121007 | -1 | 338 | 0.0 | 0.0 | 0.00 | 0.00 | 0.00 | 91 | 1018.5 |
| 20260502120505 | -1 | 338 | 0.0 | 0.0 | 0.00 | 0.00 | 0.00 | 91 | 1018.4 |
| 20260502115508 | -1 | 338 | 0.0 | 0.0 | 0.00 | 0.00 | 0.00 | 91 | 1018.4 |
| 20260502115014 | -2 | 338 | 0.0 | 0.0 | 0.00 | 0.00 | 0.00 | 91 | 1018.5 |
| 20260502114524 | -2 | 338 | 0.0 | 0.0 | 0.00 | 0.00 | 0.00 | 91 | 1018.5 |
| 20260502114007 | -2 | 338 | 0.0 | 0.0 | 0.00 | 0.00 | 0.00 | 91 | 1018.5 |
| 20260502113508 | -2 | 338 | 0.0 | 0.0 | 0.00 | 0.00 | 0.00 | 91 | 1018.3 |
| 20260502113027 | -2 | 338 | 0.0 | 0.0 | 0.00 | 0.00 | 0.00 | 91 | 1018.3 |
| 20260502112508 | -3 | 338 | 0.0 | 0.0 | 0.00 | 0.00 | 0.00 | 91 | 1018.3 |
| 20260502112004 | -3 | 338 | 0.0 | 0.0 | 0.00 | 0.00 | 0.00 | 91 | 1018.2 |
| 20260502111512 | -3 | 338 | 0.0 | 0.0 | 0.00 | 0.00 | 0.00 | 91 | 1018.2 |
| 20260502111003 | -3 | 338 | 0.0 | 0.0 | 0.00 | 0.00 | 0.00 | 91 | 1018.3 |
| 20260502110507 | -3 | 338 | 0.0 | 0.0 | 0.00 | 0.00 | 0.00 | 91 | 1018.2 |
| 20260502110014 | -3 | 338 | 0.0 | 0.0 | 0.00 | 0.00 | 0.00 | 91 | 1018.1 |
| 20260502105505 | -3 | 338 | 0.0 | 0.0 | 0.00 | 0.00 | 0.00 | 91 | 1018.1 |
| 20260502105007 | -3 | 338 | 0.0 | 0.0 | 0.00 | 0.00 | 0.00 | 91 | 1018.1 |
| 20260502104524 | -3 | 338 | 0.0 | 0.0 | 0.00 | 0.00 | 0.00 | 91 | 1018.1 |
| 20260502104010 | -3 | 338 | 0.0 | 0.0 | 0.00 | 0.00 | 0.00 | 91 | 1018.1 |
| 20260502103509 | -3 | 338 | 0.0 | 0.0 | 0.00 | 0.00 | 0.00 | 91 | 1018.1 |
| 20260502103031 | -3 | 338 | 0.0 | 0.0 | 0.00 | 0.00 | 0.00 | 91 | 1018.1 |
| 20260502102509 | -3 | 338 | 0.0 | 0.0 | 0.00 | 0.00 | 0.00 | 91 | 1018.1 |
| 20260502102007 | -3 | 338 | 0.0 | 0.0 | 0.00 | 0.00 | 0.00 | 91 | 1018.2 |
| 20260502101544 | -3 | 338 | 0.0 | 0.0 | 0.00 | 0.00 | 0.00 | 91 | 1018.1 |
| 20260502101008 | -3 | 338 | 0.0 | 0.0 | 0.00 | 0.00 | 0.00 | 91 | 1018.1 |
| 20260502100508 | -3 | 338 | 0.0 | 0.0 | 0.00 | 0.00 | 0.00 | 91 | 1018.1 |
| 20260502091528 | -3 | 338 | 0.0 | 0.0 | 0.00 | 0.00 | 0.00 | 91 | 1017.9 |
| 20260502091009 | -3 | 338 | 0.0 | 0.0 | 0.00 | 0.00 | 0.00 | 91 | 1017.8 |
| 20260502090508 | -3 | 338 | 0.0 | 0.0 | 0.00 | 0.00 | 0.00 | 91 | 1017.8 |
| 20260502071515 | -2 | 338 | 0.0 | 0.0 | 0.00 | 0.00 | 0.00 | 90 | 1017.6 |
| 20260502071007 | -2 | 338 | 0.0 | 0.0 | 0.00 | 0.00 | 0.00 | 90 | 1017.6 |
| 20260502070507 | -2 | 338 | 0.0 | 0.0 | 0.00 | 0.00 | 0.00 | 90 | 1017.6 |
| 20260502070017 | -2 | 338 | 0.0 | 0.0 | 0.00 | 0.00 | 0.00 | 90 | 1017.7 |
| 20260502065506 | -2 | 338 | 0.0 | 0.0 | 0.00 | 0.00 | 0.00 | 90 | 1017.7 |
| 20260502065006 | -2 | 338 | 0.0 | 0.0 | 0.00 | 0.00 | 0.00 | 90 | 1017.7 |
| 20260502064517 | -2 | 338 | 0.0 | 0.0 | 0.00 | 0.00 | 0.00 | 90 | 1017.8 |
| 20260502064004 | -2 | 338 | 0.0 | 0.0 | 0.00 | 0.00 | 0.00 | 90 | 1017.7 |
| 20260502063504 | -2 | 338 | 0.0 | 0.0 | 0.00 | 0.00 | 0.00 | 90 | 1017.7 |
| 20260502063012 | -2 | 338 | 0.0 | 0.0 | 0.00 | 0.00 | 0.00 | 90 | 1017.7 |
| 20260502062508 | -2 | 338 | 0.0 | 0.0 | 0.00 | 0.00 | 0.00 | 90 | 1017.8 |
| 20260502062004 | -2 | 338 | 0.0 | 0.0 | 0.00 | 0.00 | 0.00 | 90 | 1017.8 |
| 20260502061518 | -2 | 338 | 0.0 | 0.0 | 0.00 | 0.00 | 0.00 | 90 | 1017.7 |
| 20260502061005 | -2 | 338 | 0.0 | 0.0 | 0.00 | 0.00 | 0.00 | 90 | 1017.7 |
| 20260502060506 | -2 | 338 | 0.0 | 0.0 | 0.00 | 0.00 | 0.00 | 90 | 1017.7 |
| 20260502060019 | -2 | 338 | 0.0 | 0.0 | 0.00 | 0.00 | 0.00 | 89 | 1017.8 |
| 20260502055506 | -2 | 338 | 0.0 | 0.0 | 0.00 | 0.00 | 0.00 | 89 | 1017.8 |
| 20260502055007 | -2 | 338 | 0.0 | 0.0 | 0.00 | 0.00 | 0.00 | 89 | 1017.8 |
| 20260502054517 | -1 | 338 | 0.0 | 0.0 | 0.00 | 0.00 | 0.00 | 89 | 1017.8 |
| 20260502054006 | -1 | 338 | 0.0 | 0.0 | 0.00 | 0.00 | 0.00 | 89 | 1017.8 |
| 20260502053510 | -1 | 338 | 0.0 | 0.0 | 0.00 | 0.00 | 0.00 | 89 | 1017.7 |
| 20260502053016 | -1 | 338 | 0.0 | 0.0 | 0.00 | 0.00 | 0.00 | 89 | 1017.7 |
| 20260502052504 | -1 | 338 | 0.0 | 0.0 | 0.00 | 0.00 | 0.00 | 89 | 1017.7 |
| 20260502052004 | -1 | 338 | 0.0 | 0.0 | 0.00 | 0.00 | 0.00 | 89 | 1017.7 |
| 20260502051514 | -1 | 338 | 0.0 | 0.0 | 0.00 | 0.00 | 0.00 | 88 | 1017.8 |
| 20260502051005 | -1 | 338 | 0.0 | 0.0 | 0.00 | 0.00 | 0.00 | 88 | 1017.8 |
| 20260502050507 | -1 | 338 | 0.0 | 0.0 | 0.00 | 0.00 | 0.00 | 88 | 1017.8 |
| 20260502050020 | -1 | 338 | 0.0 | 0.0 | 0.00 | 0.00 | 0.00 | 88 | 1017.7 |
| 20260502045507 | -1 | 338 | 0.0 | 0.0 | 0.00 | 0.00 | 0.00 | 88 | 1017.7 |
| 20260502045007 | -1 | 338 | 0.0 | 0.0 | 0.00 | 0.00 | 0.00 | 88 | 1017.7 |
| 20260502044518 | -1 | 338 | 0.0 | 0.0 | 0.00 | 0.00 | 0.00 | 87 | 1017.7 |
| 20260502044009 | -1 | 338 | 0.0 | 0.0 | 0.00 | 0.00 | 0.00 | 87 | 1017.7 |
| 20260502043507 | -1 | 338 | 0.0 | 0.0 | 0.00 | 0.00 | 0.00 | 87 | 1017.6 |
| 20260502043019 | -1 | 338 | 0.0 | 0.0 | 0.00 | 0.00 | 0.00 | 87 | 1017.6 |
| 20260502042507 | -1 | 338 | 0.0 | 0.0 | 0.00 | 0.00 | 0.00 | 87 | 1017.6 |
| 20260502042007 | -1 | 338 | 0.0 | 0.0 | 0.00 | 0.00 | 0.00 | 87 | 1017.6 |
| 20260502041521 | -1 | 338 | 0.0 | 0.0 | 0.00 | 0.00 | 0.00 | 87 | 1017.6 |
| 20260502041004 | -1 | 338 | 0.0 | 0.0 | 0.00 | 0.00 | 0.00 | 86 | 1017.6 |
| 20260502040506 | 0 | 338 | 0.0 | 0.0 | 0.00 | 0.00 | 0.00 | 86 | 1017.5 |
| 20260502040016 | 0 | 338 | 0.0 | 0.0 | 0.00 | 0.00 | 0.00 | 86 | 1017.6 |
| 20260502035506 | 0 | 338 | 0.0 | 0.0 | 0.00 | 0.00 | 0.00 | 85 | 1017.6 |
| 20260502035006 | 0 | 338 | 0.0 | 0.0 | 0.00 | 0.00 | 0.00 | 85 | 1017.6 |
| 20260502034526 | 0 | 338 | 0.0 | 0.0 | 0.00 | 0.00 | 0.00 | 84 | 1017.7 |
| 20260502034011 | 0 | 338 | 0.0 | 0.0 | 0.00 | 0.00 | 0.00 | 84 | 1017.6 |
| 20260502033507 | 0 | 338 | 0.0 | 0.0 | 0.00 | 0.00 | 0.00 | 84 | 1017.7 |
| 20260502033019 | 0 | 338 | 0.0 | 0.0 | 0.00 | 0.00 | 0.00 | 84 | 1017.7 |
| 20260502032507 | 0 | 338 | 0.0 | 0.0 | 0.00 | 0.00 | 0.00 | 84 | 1017.7 |
| 20260502032005 | 0 | 338 | 0.0 | 0.0 | 0.00 | 0.00 | 0.00 | 83 | 1017.7 |
| 20260502031524 | 0 | 338 | 0.0 | 0.0 | 0.00 | 0.00 | 0.00 | 82 | 1017.8 |
| 20260502031007 | 0 | 338 | 0.0 | 0.0 | 0.00 | 0.00 | 0.00 | 82 | 1017.8 |
| 20260502030507 | 0 | 338 | 0.0 | 0.0 | 0.00 | 0.00 | 0.00 | 81 | 1017.8 |
| 20260502030024 | 0 | 338 | 0.0 | 0.0 | 0.00 | 0.00 | 0.00 | 81 | 1017.8 |
| 20260502025508 | 0 | 338 | 0.0 | 0.0 | 0.00 | 0.00 | 0.00 | 80 | 1017.8 |
| 20260502025004 | 0 | 338 | 0.0 | 0.0 | 0.00 | 0.00 | 0.00 | 80 | 1017.8 |
| 20260502024519 | 0 | 338 | 0.0 | 0.0 | 0.00 | 0.00 | 0.00 | 79 | 1017.7 |
| 20260502024007 | 0 | 338 | 0.0 | 1.6 | 0.00 | 0.00 | 0.00 | 79 | 1017.8 |
| 20260502023507 | 0 | 338 | 0.0 | 3.2 | 0.00 | 0.00 | 0.00 | 78 | 1017.8 |
| 20260502023022 | 1 | 338 | 0.0 | 3.2 | 0.00 | 0.00 | 0.00 | 78 | 1017.8 |
| 20260502022506 | 1 | 338 | 0.0 | 3.2 | 0.00 | 0.00 | 0.00 | 77 | 1017.8 |
| 20260502022009 | 1 | 344 | 1.6 | 3.2 | 0.00 | 0.00 | 0.00 | 77 | 1017.8 |
| 20260502021523 | 1 | 11 | 0.0 | 1.6 | 0.00 | 0.00 | 0.00 | 76 | 1017.8 |
| 20260502021007 | 1 | 5 | 0.0 | 3.2 | 0.00 | 0.00 | 0.00 | 75 | 1017.8 |
| 20260502020507 | 1 | 5 | 0.0 | 3.2 | 0.00 | 0.00 | 0.00 | 75 | 1017.9 |
| 20260502020024 | 1 | 5 | 0.0 | 6.4 | 0.00 | 0.00 | 0.00 | 74 | 1017.9 |
| 20260502015507 | 1 | 5 | 1.6 | 8.0 | 0.00 | 0.00 | 0.00 | 74 | 1017.8 |
| 20260502015008 | 2 | 9 | 0.0 | 12.9 | 0.00 | 0.00 | 0.00 | 73 | 1017.6 |
| 20260502014525 | 2 | 340 | 0.0 | 12.9 | 0.00 | 0.00 | 0.00 | 73 | 1017.5 |
| 20260502014015 | 2 | 331 | 3.2 | 6.4 | 0.00 | 0.00 | 0.00 | 73 | 1017.5 |
| 20260502013507 | 2 | 344 | 1.6 | 6.4 | 0.00 | 0.00 | 0.00 | 73 | 1017.5 |
| 20260502013019 | 2 | 348 | 0.0 | 4.8 | 0.00 | 0.00 | 0.00 | 73 | 1017.5 |
| 20260502012510 | 2 | 342 | 0.0 | 6.4 | 0.00 | 0.00 | 0.00 | 72 | 1017.4 |
| 20260502012007 | 2 | 17 | 1.6 | 6.4 | 0.00 | 0.00 | 0.00 | 72 | 1017.4 |
| 20260502011525 | 2 | 27 | 1.6 | 9.7 | 0.00 | 0.00 | 0.00 | 72 | 1017.4 |
| 20260502011008 | 2 | 290 | 1.6 | 9.7 | 0.00 | 0.00 | 0.00 | 71 | 1017.3 |
| 20260502010508 | 2 | 20 | 3.2 | 9.7 | 0.00 | 0.00 | 0.00 | 71 | 1017.4 |